Wind_Speed
23 23 23 24 24 24 24 24 23 23 22 22 23 23 23 23 23 23 23 22 22 22 22 22 22 22 23 24 23 23 23 23 23 23 23 23 23 22 21 20 19 19 18 17 16 15 14 14 13
25 25 25 25 26 25 25 25 24 24 24 25 25 26 26 26 25 25 25 24 24 24 24 24 24 24 24 24 25 25 25 24 24 24 24 24 24 24 24 23 22 21 20 19 19 18 16 15 15
26 26 27 27 27 27 27 27 27 27 27 27 28 28 29 28 28 28 27 27 27 27 27 27 27 27 27 26 26 27 27 27 26 26 26 26 26 25 25 25 24 23 22 22 21 20 18 17 17
26 27 28 28 28 28 28 29 29 29 30 30 31 31 32 31 31 31 31 30 30 30 30 30 30 30 30 29 29 29 29 29 28 29 28 28 28 27 27 26 26 26 25 24 23 21 21 20 19
27 28 29 29 29 29 30 30 31 31 32 32 33 34 34 34 34 34 34 34 33 33 33 32 33 33 33 33 32 32 31 31 30 30 30 30 30 29 29 28 28 27 26 25 24 24 23 22 21
28 29 29 29 30 31 32 32 33 33 33 34 35 36 37 37 37 37 37 37 37 36 36 36 35 35 35 35 36 35 35 34 33 33 32 32 32 31 31 30 30 29 28 27 26 26 25 24 23
28 29 29 29 30 31 31 33 34 35 35 36 37 38 38 39 40 40 41 41 41 40 40 39 39 39 38 38 38 38 38 37 37 36 35 34 34 34 33 32 32 31 30 29 28 28 27 26 25
27 28 28 28 29 30 31 33 35 36 37 38 39 40 41 42 43 43 44 44 44 44 43 43 43 42 42 42 41 41 41 40 40 40 39 38 37 36 35 34 35 34 33 31 30 29 29 28 27
25 26 27 28 29 30 32 33 35 37 38 40 41 43 44 44 45 46 47 47 47 47 47 46 46 46 45 45 45 45 44 44 43 43 42 41 40 39 38 37 36 36 35 34 33 31 30 29 29
25 26 27 28 30 31 33 35 37 38 40 42 43 45 46 47 48 48 49 49 49 50 49 49 49 49 49 49 48 48 47 47 46 46 45 44 43 42 41 40 39 38 37 36 35 34 32 31 31
25 26 28 29 30 32 33 35 38 40 42 44 45 46 47 48 49 50 50 51 51 51 52 52 52 51 51 51 51 51 50 50 49 49 48 47 46 45 43 43 42 41 40 38 37 36 35 34 33
25 26 28 29 30 32 33 36 38 41 43 44 46 47 48 48 50 51 52 52 53 53 53 54 54 54 54 54 54 54 53 53 52 51 51 51 50 48 46 45 44 43 43 41 40 38 37 37 35
25 26 27 28 30 32 34 36 38 41 43 44 46 48 48 49 50 51 52 53 53 54 54 55 56 56 57 57 57 57 56 55 54 55 54 53 52 51 50 48 47 47 46 44 42 41 41 39 37
26 27 28 30 31 32 34 36 39 40 42 43 44 46 48 49 49 50 52 52 53 53 54 55 56 57 58 59 60 60 59 58 58 58 57 56 55 54 53 51 51 49 49 47 45 44 43 42 40
27 28 29 31 33 34 35 37 39 40 41 42 43 45 47 49 49 50 51 52 53 54 54 55 57 58 59 61 62 62 62 61 61 60 60 59 59 58 57 54 54 53 52 50 48 46 45 44 42
28 29 31 32 33 34 36 35 38 40 40 41 42 44 46 48 49 49 50 50 51 53 54 55 56 58 59 61 62 63 63 63 63 63 62 62 62 61 60 57 57 56 54 53 51 49 47 46 44
29 30 30 32 34 34 35 35 36 39 39 40 41 43 44 46 47 47 48 48 50 52 53 53 54 56 58 59 61 62 64 64 64 64 64 64 64 63 63 60 59 59 57 55 54 52 50 48 46
30 30 31 32 34 34 35 35 35 38 39 40 41 42 41 43 44 45 47 47 48 50 51 53 53 54 56 58 59 61 63 64 64 64 64 64 64 64 64 63 62 61 60 58 57 55 51 50 48
31 32 33 33 34 35 35 36 36 37 38 39 40 40 40 41 42 43 44 45 46 48 50 51 52 53 54 56 58 59 60 62 63 63 62 63 63 63 63 64 64 63 62 60 58 57 54 53 51
33 34 34 34 34 36 36 36 36 37 38 39 40 40 40 40 40 40 41 42 42 45 48 49 50 51 52 54 57 59 59 59 60 61 61 61 62 62 63 63 64 63 63 61 60 59 57 55 53
34 35 35 35 35 35 37 36 36 37 38 39 39 40 40 40 39 39 39 39 40 42 45 47 48 50 51 52 55 57 57 56 57 58 59 60 60 61 61 60 62 63 63 62 61 60 58 56 53
34 35 36 36 36 36 37 37 36 38 39 40 40 40 40 39 39 38 39 38 38 39 42 45 46 48 49 50 52 53 54 53 53 55 57 57 58 59 60 60 60 61 62 61 59 60 60 58 55
35 36 37 37 37 37 37 38 37 40 40 40 41 40 40 39 38 38 38 37 37 38 40 42 43 44 45 46 48 50 51 51 50 52 54 56 57 57 57 58 59 59 60 59 58 59 59 57 56
36 37 38 37 37 37 37 39 39 41 41 41 41 41 40 39 38 39 38 37 36 37 38 40 40 41 42 43 44 46 49 50 49 50 53 55 56 56 56 57 58 58 58 58 58 59 58 57 55
36 37 39 39 39 38 38 40 39 41 41 42 42 42 42 41 40 39 38 36 36 35 37 40 41 40 39 40 41 43 46 48 48 49 51 53 55 55 55 56 56 57 57 57 57 59 58 57 55
36 37 38 40 41 40 39 40 40 41 42 43 43 43 42 41 40 39 38 37 37 35 36 38 39 38 37 38 39 41 43 45 47 47 48 51 53 54 54 55 55 55 56 56 57 59 58 57 55
36 37 39 41 42 42 41 41 40 41 42 42 42 42 42 42 40 38 37 37 37 37 37 37 36 36 36 36 36 37 39 41 44 46 47 49 51 54 53 53 52 54 56 56 56 57 57 56 55
36 38 40 41 43 44 43 42 42 43 42 42 41 41 41 41 40 38 37 37 36 36 36 35 35 36 35 34 34 35 36 39 41 43 45 47 50 52 52 52 51 52 55 55 55 56 56 56 55
37 38 40 41 42 45 46 41 43 43 43 43 42 42 41 41 40 38 37 38 36 35 35 35 35 33 31 31 32 32 34 35 36 38 42 44 48 51 50 49 49 52 54 53 52 55 55 55 54
38 39 40 41 42 43 45 43 42 43 44 45 44 42 41 41 40 39 39 39 37 35 34 33 32 31 29 28 29 31 32 33 33 35 40 41 44 47 48 48 48 51 52 50 50 53 54 54 53
Wind_Direction
266 265 265 264 263 262 261 260 259 259 259 260 259 259 258 258 258 260 259 258 257 255 254 254 254 253 252 250 249 249 248 247 247 246 246 246 248 249 250 252 252 253 253 255 258 259 260 263 267
266 266 265 264 264 263 262 262 261 259 259 259 259 260 259 259 259 259 259 258 257 256 256 255 255 255 254 253 251 250 249 249 249 248 248 248 248 249 251 252 254 254 254 255 257 258 259 261 264
267 266 265 264 264 264 264 263 262 261 260 260 260 260 260 261 261 260 260 259 257 256 256 256 255 255 255 254 253 251 250 250 250 249 249 249 249 249 250 252 254 256 255 255 256 256 258 260 262
268 266 265 265 265 265 265 264 263 262 261 261 261 261 261 261 261 260 260 260 259 257 256 256 255 255 255 256 254 253 252 251 251 251 250 250 250 250 251 252 254 256 256 256 256 256 257 258 260
268 267 266 266 266 265 265 264 263 263 263 262 262 263 263 262 261 261 260 260 260 259 257 256 255 255 255 255 255 254 253 253 252 252 251 251 251 251 252 252 253 255 256 256 257 256 256 257 259
269 269 269 268 267 267 266 266 266 265 264 264 263 263 264 263 262 262 262 261 261 260 259 257 256 255 254 254 254 253 253 253 253 253 252 251 252 252 252 253 254 255 255 256 256 255 256 256 257
273 271 271 271 269 269 269 269 269 268 267 267 266 265 265 265 265 264 263 263 262 261 260 259 257 255 253 253 253 253 253 253 253 253 253 253 252 252 252 253 254 254 255 255 255 255 255 255 256
276 275 274 273 272 271 271 271 270 270 269 268 267 266 266 266 266 265 265 264 263 262 260 259 258 256 254 253 252 252 252 252 252 253 253 253 253 252 252 252 253 254 254 254 254 255 254 254 255
278 278 277 276 276 275 274 273 272 271 271 270 269 268 267 266 266 266 265 264 263 262 261 260 259 258 256 254 252 251 251 252 252 252 252 253 253 253 252 252 252 253 253 253 253 253 254 253 254
284 283 282 282 281 280 278 276 274 273 271 271 270 269 269 267 266 266 265 264 264 262 261 260 259 258 257 255 253 251 250 250 251 251 251 251 252 252 253 252 251 252 252 252 252 252 252 253 254
288 287 286 285 284 282 280 278 276 274 273 273 272 271 270 270 267 266 265 264 263 262 261 260 260 259 257 256 254 252 250 249 250 250 250 251 250 250 251 252 251 251 250 251 252 251 250 252 253
293 292 291 289 288 285 283 281 278 277 276 276 275 273 271 270 269 266 265 264 263 262 261 260 259 258 257 256 254 252 251 250 249 250 250 250 250 250 250 250 251 251 250 250 251 250 250 250 251
296 296 295 294 294 291 289 286 283 280 279 279 278 276 274 271 270 268 265 264 263 262 260 259 258 257 256 255 254 252 251 250 249 249 249 249 249 249 249 249 249 249 249 249 250 250 250 249 249
300 299 298 299 299 297 294 291 288 285 283 282 281 279 276 274 272 269 266 264 264 262 260 259 258 256 255 254 253 252 250 248 248 248 247 247 247 247 247 247 247 247 248 249 249 249 249 248 248
303 301 301 301 301 300 299 297 292 289 287 286 284 282 279 275 273 272 267 265 264 263 262 260 259 257 256 255 253 251 249 248 247 247 247 247 247 246 245 245 246 246 247 248 247 248 248 247 248
306 304 304 304 304 303 303 303 299 295 292 291 289 288 283 278 275 273 268 267 266 264 263 261 260 259 258 256 254 252 249 248 247 246 246 246 246 245 244 244 244 245 245 246 246 246 247 246 247
307 306 305 306 305 305 306 307 305 301 298 295 293 293 289 282 278 275 270 269 268 266 264 262 261 260 259 257 255 253 249 248 247 246 245 244 244 245 244 242 243 243 243 245 245 245 245 245 245
310 308 307 308 307 306 308 310 310 306 303 300 298 296 294 288 283 279 274 272 270 267 265 264 263 262 260 258 256 254 251 248 246 245 245 244 244 244 244 242 241 241 241 243 244 243 243 243 244
313 311 311 311 311 310 310 312 313 310 306 303 301 299 296 295 290 283 278 276 273 270 266 265 263 263 262 260 257 255 252 249 247 246 244 244 243 243 243 242 240 239 240 240 242 241 240 241 242
314 313 312 312 312 313 313 314 315 314 311 308 306 304 301 298 294 287 282 279 277 274 269 267 264 264 264 262 258 255 253 250 248 245 243 243 242 241 240 240 239 238 237 238 239 240 239 240 240
315 315 315 314 313 314 314 315 317 315 314 312 309 306 304 301 297 292 287 283 280 277 274 271 267 266 265 263 259 255 252 249 247 244 242 240 240 239 238 238 237 235 235 236 236 237 236 238 238
315 316 316 316 316 318 318 317 318 317 316 314 312 309 306 303 298 295 291 286 283 280 279 275 271 270 267 264 260 256 252 248 245 243 240 238 237 237 236 235 235 234 234 233 234 235 234 234 235
315 316 316 317 317 318 318 319 320 319 318 316 314 312 309 305 301 298 294 289 287 285 283 280 276 272 268 266 263 256 251 246 244 241 238 237 236 236 235 234 234 233 231 231 231 232 232 232 233
315 315 315 316 317 319 320 321 322 321 320 318 316 315 313 306 302 300 296 292 289 288 287 285 280 276 272 268 264 257 250 245 243 240 237 236 234 234 235 233 232 231 230 229 229 231 230 231 232
314 315 316 317 319 321 321 321 323 322 321 319 318 316 314 310 304 301 299 294 291 289 288 286 282 278 272 268 264 257 250 245 242 241 238 236 233 233 233 232 231 230 229 228 229 229 228 229 230
313 315 317 318 319 319 319 321 323 322 322 320 319 317 315 312 306 302 300 296 293 291 289 289 284 280 275 267 262 256 250 246 243 240 238 236 233 230 230 231 230 229 228 227 228 227 226 228 229
313 314 316 317 317 318 319 322 321 322 322 320 319 318 315 313 309 304 301 297 295 293 291 289 283 280 275 267 261 256 249 245 242 239 239 236 232 228 228 228 228 227 226 226 227 227 225 227 228
311 313 315 317 318 318 319 323 322 322 322 320 319 318 316 314 312 308 304 299 297 297 294 288 285 280 275 267 260 253 247 243 242 242 237 235 230 227 227 228 228 227 225 224 226 225 225 227 227
310 312 313 314 316 316 317 323 322 322 322 321 320 318 316 315 313 310 306 304 300 299 297 291 288 283 275 265 254 247 246 246 245 242 237 234 231 228 226 226 226 225 223 223 225 225 225 226 227
308 309 311 313 314 315 315 321 321 321 320 319 319 318 317 316 314 311 309 306 301 299 296 291 286 283 276 264 251 245 245 244 246 242 237 234 231 228 226 226 225 223 221 222 224 223 224 226 227
Height
5809 5809 5810 5811 5812 5812 5813 5815 5816 5817 5818 5819 5819 5820 5822 5823 5825 5828 5828 5828 5829 5830 5831 5832 5834 5835 5836 5837 5839 5840 5842 5843 5845 5846 5847 5848 5850 5851 5852 5853 5855 5856 5857 5858 5859 5860 5860 5861 5862
5804 5805 5806 5806 5806 5807 5809 5810 5811 5812 5813 5814 5814 5815 5816 5818 5819 5821 5821 5823 5824 5825 5827 5828 5829 5830 5832 5833 5834 5836 5837 5839 5840 5842 5843 5844 5846 5847 5848 5849 5851 5852 5853 5854 5856 5857 5858 5858 5859
5799 5799 5800 5800 5801 5802 5804 5805 5806 5807 5808 5808 5809 5810 5811 5812 5813 5815 5816 5817 5819 5820 5821 5823 5824 5825 5827 5828 5830 5831 5832 5834 5835 5837 5838 5840 5841 5842 5844 5845 5847 5848 5850 5851 5852 5853 5854 5855 5856
5794 5794 5794 5795 5796 5797 5798 5799 5799 5800 5801 5802 5803 5803 5804 5806 5807 5808 5810 5811 5813 5814 5815 5817 5818 5820 5821 5823 5824 5826 5827 5828 5830 5831 5833 5834 5836 5837 5839 5841 5842 5844 5845 5847 5848 5850 5851 5852 5853
5788 5788 5788 5788 5790 5791 5791 5792 5792 5793 5794 5795 5796 5796 5797 5799 5800 5801 5803 5804 5806 5807 5809 5810 5812 5813 5815 5817 5818 5819 5821 5823 5824 5826 5827 5829 5830 5832 5834 5835 5837 5839 5841 5842 5844 5845 5847 5848 5849
5782 5781 5782 5782 5783 5784 5784 5784 5785 5786 5786 5787 5788 5788 5789 5790 5791 5793 5795 5796 5798 5800 5801 5803 5804 5806 5808 5810 5811 5812 5814 5816 5818 5819 5821 5823 5824 5826 5828 5830 5832 5834 5835 5837 5839 5840 5842 5843 5845
5776 5775 5775 5776 5776 5776 5777 5777 5777 5777 5778 5779 5779 5779 5781 5781 5782 5784 5785 5787 5788 5790 5792 5794 5796 5798 5800 5801 5803 5805 5807 5809 5810 5812 5814 5816 5818 5820 5822 5824 5826 5827 5829 5831 5833 5835 5837 5838 5840
5768 5768 5768 5768 5768 5768 5769 5768 5768 5768 5769 5769 5769 5770 5771 5772 5772 5773 5775 5776 5778 5780 5782 5784 5786 5789 5791 5793 5795 5797 5798 5800 5802 5804 5806 5809 5811 5813 5815 5817 5819 5821 5823 5825 5827 5829 5831 5833 5835
5762 5763 5761 5761 5760 5760 5760 5759 5759 5759 5759 5758 5758 5759 5760 5760 5761 5762 5763 5765 5766 5768 5771 5773 5775 5778 5780 5783 5785 5787 5789 5791 5794 5796 5798 5800 5803 5805 5808 5810 5812 5814 5816 5818 5820 5822 5825 5827 5829
5756 5755 5754 5753 5752 5751 5750 5749 5749 5748 5748 5747 5747 5747 5747 5748 5748 5749 5750 5752 5754 5756 5758 5760 5763 5765 5768 5771 5773 5776 5779 5781 5784 5786 5789 5791 5794 5797 5800 5802 5805 5807 5809 5811 5813 5815 5818 5821 5823
5749 5748 5746 5745 5743 5742 5740 5740 5738 5737 5736 5736 5735 5735 5734 5734 5734 5734 5736 5738 5740 5743 5745 5746 5749 5752 5755 5757 5761 5764 5767 5770 5773 5776 5779 5782 5785 5788 5791 5794 5796 5799 5801 5804 5806 5809 5811 5814 5816
5743 5741 5739 5737 5735 5733 5731 5729 5727 5725 5725 5724 5722 5721 5721 5720 5719 5720 5721 5723 5726 5728 5730 5732 5734 5737 5740 5743 5746 5750 5754 5758 5761 5764 5767 5771 5774 5778 5781 5785 5788 5790 5793 5796 5799 5801 5804 5806 5809
5737 5735 5732 5729 5727 5724 5722 5719 5716 5714 5713 5711 5709 5708 5706 5706 5706 5706 5707 5708 5710 5712 5715 5717 5719 5722 5724 5727 5731 5735 5739 5744 5747 5751 5754 5758 5762 5766 5770 5774 5778 5781 5784 5787 5790 5793 5796 5798 5801
5731 5728 5725 5722 5719 5716 5713 5709 5706 5703 5701 5698 5696 5694 5692 5692 5692 5692 5692 5693 5694 5696 5699 5700 5703 5705 5708 5711 5715 5719 5723 5728 5732 5737 5740 5744 5749 5754 5758 5763 5767 5771 5774 5777 5781 5784 5787 5790 5793
5724 5722 5719 5715 5711 5708 5704 5701 5695 5692 5690 5687 5684 5681 5678 5677 5677 5677 5677 5678 5679 5680 5682 5684 5686 5688 5690 5694 5697 5701 5706 5710 5716 5721 5725 5729 5734 5739 5745 5750 5755 5759 5763 5767 5770 5774 5778 5781 5785
5718 5715 5712 5708 5704 5699 5697 5693 5687 5681 5679 5676 5672 5669 5665 5664 5663 5662 5662 5663 5663 5664 5666 5667 5668 5670 5672 5675 5678 5682 5687 5692 5697 5703 5708 5713 5718 5724 5729 5736 5742 5747 5751 5756 5760 5764 5768 5772 5775
5712 5709 5705 5701 5696 5692 5688 5684 5679 5672 5668 5665 5661 5657 5654 5651 5650 5648 5647 5647 5648 5648 5649 5650 5651 5653 5654 5657 5660 5663 5667 5672 5678 5683 5689 5695 5701 5707 5713 5720 5727 5732 5738 5743 5748 5753 5757 5761 5766
5705 5701 5697 5694 5689 5685 5680 5676 5670 5663 5659 5655 5651 5647 5643 5640 5638 5635 5633 5632 5632 5633 5633 5634 5635 5636 5637 5639 5642 5645 5648 5653 5658 5664 5670 5676 5682 5689 5696 5703 5710 5717 5723 5729 5734 5741 5746 5751 5755
5698 5694 5690 5686 5681 5677 5673 5668 5662 5656 5651 5646 5641 5637 5633 5629 5626 5623 5620 5619 5618 5618 5618 5618 5619 5620 5620 5622 5624 5627 5631 5635 5640 5646 5652 5658 5664 5670 5678 5686 5693 5700 5708 5715 5721 5727 5733 5739 5744
5691 5687 5683 5680 5674 5669 5665 5661 5655 5649 5643 5638 5633 5628 5624 5620 5616 5612 5609 5607 5605 5604 5603 5603 5603 5603 5604 5605 5607 5610 5614 5618 5622 5627 5634 5640 5646 5652 5660 5667 5676 5684 5692 5699 5706 5713 5720 5727 5733
5685 5680 5676 5672 5668 5663 5658 5654 5648 5642 5635 5629 5624 5619 5614 5610 5606 5602 5599 5596 5595 5593 5591 5590 5589 5588 5588 5589 5590 5592 5595 5600 5604 5609 5616 5622 5629 5636 5643 5651 5659 5668 5676 5685 5692 5700 5707 5715 5721
5680 5674 5669 5664 5659 5655 5650 5644 5641 5634 5627 5621 5616 5610 5605 5601 5596 5593 5589 5586 5584 5581 5579 5577 5576 5574 5573 5573 5573 5575 5578 5583 5588 5593 5599 5606 5613 5620 5627 5636 5644 5652 5661 5670 5678 5686 5694 5701 5708
5672 5667 5662 5657 5652 5647 5642 5637 5634 5627 5620 5613 5607 5602 5596 5591 5587 5583 5579 5576 5574 5571 5568 5565 5563 5561 5559 5559 5558 5559 5563 5567 5573 5577 5584 5591 5598 5606 5613 5621 5629 5637 5646 5655 5664 5672 5680 5689 5697
5665 5660 5656 5651 5645 5641 5635 5629 5625 5618 5612 5606 5600 5594 5588 5582 5578 5573 5569 5566 5563 5560 5556 5553 5550 5549 5547 5546 5545 5545 5548 5553 5557 5562 5569 5576 5584 5592 5600 5607 5615 5624 5633 5642 5651 5660 5668 5677 5686
5659 5654 5648 5642 5638 5634 5628 5622 5618 5611 5604 5598 5592 5586 5579 5574 5569 5564 5560 5557 5553 5550 5546 5542 5539 5536 5534 5533 5532 5533 5536 5539 5544 5549 5555 5562 5570 5578 5587 5594 5602 5611 5620 5629 5639 5647 5656 5665 5674
5652 5647 5642 5635 5629 5626 5622 5616 5612 5604 5597 5590 5583 5577 5571 5566 5560 5556 5551 5547 5543 5540 5536 5532 5528 5525 5523 5522 5522 5522 5524 5527 5532 5537 5543 5550 5557 5566 5574 5582 5590 5598 5608 5617 5626 5635 5645 5653 5663
5644 5640 5635 5629 5622 5617 5614 5609 5605 5597 5590 5583 5576 5570 5564 5559 5553 5548 5543 5539 5534 5531 5527 5523 5518 5515 5513 5511 5511 5512 5514 5517 5521 5527 5532 5538 5545 5554 5562 5571 5578 5587 5596 5605 5614 5623 5633 5642 5652
5638 5632 5627 5621 5614 5608 5605 5602 5596 5589 5582 5576 5569 5563 5557 5552 5546 5540 5536 5531 5527 5522 5518 5514 5509 5506 5504 5502 5502 5503 5505 5509 5512 5516 5521 5527 5535 5543 5551 5560 5567 5575 5584 5594 5603 5612 5623 5632 5641
5631 5626 5619 5613 5608 5601 5594 5597 5590 5581 5574 5568 5562 5556 5550 5544 5539 5533 5529 5524 5519 5514 5509 5505 5501 5498 5495 5494 5494 5495 5498 5501 5504 5507 5512 5518 5526 5533 5540 5549 5557 5565 5574 5583 5592 5602 5612 5621 5631
5623 5618 5613 5608 5602 5594 5587 5589 5583 5575 5567 5560 5555 5549 5543 5537 5531 5526 5521 5515 5511 5506 5502 5498 5494 5491 5488 5486 5487 5489 5491 5494 5496 5500 5504 5510 5516 5523 5531 5539 5547 5556 5565 5574 5583 5593 5602 5612 5621